Weather History for KTPA - August, 2012

Change the Weather History Date:

Saturday, August 4, 2012

  Actual Average Record
Temperature  
Mean Temperature 85 °F 83 °F  
Max Temperature 94 °F 90 °F 97 °F (1970)
Min Temperature 75 °F 76 °F 69 °F (1920)
Degree Days  
Heating Degree Days 0 0  
Month to date heating degree days 0 0  
Since 1 June heating degree days 0 0  
Since 1 July heating degree days 0 0  
Cooling Degree Days 20 18  
Month to date cooling degree days 78 72  
Year to date cooling degree days 2420 2023  
Since 1 June cooling degree days 1128 1146  
Growing Degree Days 34 (Base 50)    
Moisture  
Dew Point 70 °F    
Average Humidity 66    
Maximum Humidity 87    
Minimum Humidity 44    
Precipitation  
Precipitation T in 0.24 in 3.20 in (1957)
Month to date precipitation T 0.96  
Year to date precipitation 35.89 26.91  
Sea Level Pressure  
Sea Level Pressure 30.03 in    
Wind  
Wind Speed 4 mph (NE)    
Max Wind Speed 21 mph    
Max Gust Speed 30 mph    
Visibility 10 miles    
Events      
T = Trace of Precipitation, MM = Missing Value Source: NWS Daily Summary

Daily Weather History Graph

Daily Weather History Graph

Search for Another Location

Airport or City:

Trip Planner

Search our weather history database for the weather conditions in past years. The results will help you decide how hot, cold, wet, or windy it might be!

Date:

Astronomy

Aug. 04, 2012 Rise Set
Actual Time 6:54 AM EDT 8:17 PM EDT
Civil Twilight 6:29 AM EDT 8:42 PM EDT
Nautical Twilight 5:59 AM EDT 9:12 PM EDT
Astronomical Twilight 5:28 AM EDT 9:43 PM EDT
Moon 9:48 PM EDT (8/4) 9:20 AM EDT (8/4)
Length of Visible Light 14h 12m
Length of Day
13h 22m
Waning Gibbous, 92% of the Moon is Illuminated
Aug 4
Waning Gibbous
Aug 9
Last Quarter
Aug 17
New
Aug 24
First Quarter
Aug 31
Full

Hourly Weather History & Observations

Time (EDT) Temp. Heat Index Dew Point Humidity Pressure Visibility Wind Dir Wind Speed Gust Speed Precip Events Conditions
12:53 AM 77.0 °F - 69.1 °F 76% 30.04 in 10.0 mi ENE 3.5 mph - N/A   Mostly Cloudy
1:53 AM 77.0 °F - 68.0 °F 74% 30.03 in 10.0 mi ENE 3.5 mph - N/A   Scattered Clouds
2:53 AM 75.9 °F - 69.1 °F 79% 30.01 in 10.0 mi Calm Calm - N/A   Scattered Clouds
3:53 AM 75.0 °F - 69.1 °F 82% 30.01 in 10.0 mi Calm Calm - N/A   Partly Cloudy
4:53 AM 75.0 °F - 70.0 °F 84% 30.01 in 10.0 mi Calm Calm - N/A   Partly Cloudy
5:53 AM 75.0 °F - 71.1 °F 87% 30.01 in 10.0 mi ENE 4.6 mph - N/A   Clear
6:53 AM 75.0 °F - 71.1 °F 87% 30.02 in 10.0 mi Calm Calm - N/A   Partly Cloudy
7:53 AM 75.2 °F - 71.6 °F 89% 30.03 in 10.0 mi NNE 4.6 mph - N/A   Mostly Cloudy
8:53 AM 80.1 °F 84.2 °F 73.0 °F 79% 30.05 in 10.0 mi NE 4.6 mph - N/A   Scattered Clouds
9:53 AM 82.9 °F 88.0 °F 72.0 °F 69% 30.05 in 10.0 mi Variable 3.5 mph - N/A   Scattered Clouds
10:53 AM 87.1 °F 91.3 °F 69.1 °F 55% 30.06 in 10.0 mi East 3.5 mph - N/A   Scattered Clouds
11:53 AM 89.1 °F 93.7 °F 69.1 °F 52% 30.06 in 10.0 mi North 8.1 mph - N/A   Scattered Clouds
12:53 PM 90.0 °F 95.4 °F 70.0 °F 52% 30.05 in 10.0 mi NNE 5.8 mph - N/A   Mostly Cloudy
1:53 PM 90.0 °F 93.6 °F 68.0 °F 48% 30.04 in 10.0 mi ENE 4.6 mph - N/A   Mostly Cloudy
2:53 PM 91.9 °F 96.9 °F 69.1 °F 47% 30.02 in 10.0 mi North 6.9 mph - N/A   Scattered Clouds
3:53 PM 93.0 °F 97.4 °F 68.0 °F 44% 30.00 in 10.0 mi Variable 6.9 mph - N/A   Scattered Clouds
4:53 PM 93.9 °F 98.6 °F 68.0 °F 43% 29.99 in 10.0 mi NNW 9.2 mph - N/A   Scattered Clouds
5:53 PM 91.9 °F 100.7 °F 73.0 °F 54% 29.98 in 10.0 mi NW 10.4 mph - N/A   Scattered Clouds
6:53 PM 90.0 °F 96.9 °F 72.0 °F 55% 29.99 in 10.0 mi North 16.1 mph 20.7 mph N/A   Mostly Cloudy
7:53 PM 82.0 °F 85.5 °F 69.1 °F 65% 30.01 in 10.0 mi ENE 5.8 mph - N/A   Mostly Cloudy
8:53 PM 82.9 °F 85.8 °F 68.0 °F 60% 30.02 in 10.0 mi Calm Calm - 0.00 in   Mostly Cloudy
9:53 PM 82.0 °F 86.3 °F 71.1 °F 69% 30.04 in 10.0 mi Calm Calm - N/A   Mostly Cloudy
10:53 PM 82.9 °F 88.0 °F 72.0 °F 69% 30.05 in 10.0 mi ENE 3.5 mph - N/A   Overcast
11:53 PM 82.0 °F 87.4 °F 73.0 °F 74% 30.06 in 10.0 mi Calm Calm - N/A   Overcast